Regional Weather Roundup
Issued by NWS

Home | Current Version | Previous Version | Text Only | Print | Product List | Glossary On
Versions: 1 2 3 4 5 6 7 8 9 10 11 12 13 14 15 16 17 18 19 20 21 22 23 24 25 26 27 28 29 30 31 32 33 34 35 36 37 38 39 40 41 42 43 44 45 46 47 48 49 50
000
ASUS43 KBIS 301820
RWRND

NORTH DAKOTA REGIONAL WEATHER ROUNDUP
NATIONAL WEATHER SERVICE BISMARCK ND
1200 PM CST FRI JAN 30 2015

NOTE: "FAIR" INDICATES FEW OR NO CLOUDS BELOW 12,000 FEET WITH NO
SIGNIFICANT WEATHER AND/OR OBSTRUCTIONS TO VISIBILITY.


NDZ001>003-009>011-017-301900-
NORTHWEST NORTH DAKOTA

CITY           SKY/WX    TMP DP  RH WIND       PRES   REMARKS
WILLISTON      SUNNY     38  28  67 NW10      30.21R
6HR MIN TEMP:  15; 6HR MAX TEMP:  38;

MINOT          SUNNY     36  25  64 NW14      30.13S
MINOT AFB      SUNNY     34  31  88 NW17      30.13R
$$

NDZ018>021-031>035-040>046-301900-
SOUTHWEST NORTH DAKOTA

CITY           SKY/WX    TMP DP  RH WIND       PRES   REMARKS
BISMARCK       SUNNY     34  25  69 SW7       30.18F
6HR MIN TEMP:  16; 6HR MAX TEMP:  34;

DICKINSON      SUNNY     41  28  60 W14       30.15S
GARRISON         N/A     35  27  72 NW14      30.14S
6HR MIN TEMP:  16; 6HR MAX TEMP:  35;

HETTINGER ARPT SUNNY     43  28  55 W13       30.17F
$$

NDZ004>008-012>016-024-026-027-054-301900-
NORTHEAST NORTH DAKOTA

CITY           SKY/WX    TMP DP  RH WIND       PRES   REMARKS
GRAND FORKS    CLOUDY    21  14  74 S25G31    30.20F WCI   4
GRND FRKS AFB  CLOUDY    21  13  71 S20       30.19F WCI   6
DEVILS LAKE    SUNNY     28  21  74 SW13      30.11F WCI  18
$$

NDZ022-023-025-028>030-036>039-047>053-301900-
SOUTHEAST NORTH DAKOTA

CITY           SKY/WX    TMP DP  RH WIND       PRES   REMARKS
FARGO          CLOUDY    23  14  68 S20G28    30.26F WCI   8
6HR MIN TEMP:  11; 6HR MAX TEMP:  23;

JAMESTOWN      SUNNY     32  22  66 SW8       30.16F
$$



USA.gov is the U.S. government's official web portal to all federal, state and local government web resources and services.